Tracking 19286 objects as of 18-Nov-2018
HD Live streaming from Space Station
objects crossing your sky now

LEASAT 1

Track LEASAT 1 now!
LEASAT 1 is classified as:


NORAD ID: 15384
Int'l Code: 1984-113C
Perigee: 36,149.6 km
Apogee: 36,419.7 km
Inclination: 13.8 °
Period: 1,461.2 minutes
Semi major axis: 42655 km
RCS: 16.1907 m2 (large)
Launch date: November 8, 1984
Source: United States (US)
Launch site: AIR FORCE EASTERN TEST RANGE (AFETR)
aabbcc
Your satellite tracking list
Your tracking list is empty




NASA's NSSDC Master Catalog

Two Line Element Set (TLE):
1 15384U 84113C   18321.38300240 -.00000219  00000-0  00000+0 0  9995
2 15384  13.7855 356.7598 0031659 239.1351 292.9963  0.98545931 96732
Source of the keplerian elements: AFSPC